OPS 4682 DEB, 27545

Orbit data source: Space-Track

OPS 4682 DEB, 27545 is space debris in LEO originally from a launch on Sat, 03 Apr 1965 UTC launched from the Air Force Western Test Range (AFWTR). Debris objects in space refer to the collection of defunct objects orbiting the Earth. Examples of debris include non-operational satellites, rocket bodies, and fragments generated from explosions, collisions, or faulty payload assembly.

Loading next visibility...
Identifier
27545, 1965-027BH
Orbit
LEO
Country
Flag of USUS
Related business
Manufacturer
Unknown
Mission
Spacecraft
Bus & Motor
Unknown
Mass
Unknown
Launch date (UTC)
1965-04-03 (61 years ago)
Launch vehicle
Unknown
Launch site
Air Force Western Test Range (AFWTR)
Object type
Payload
Rocket body
Debris
Shape & HBR
Unknown shape, 0.1 m
Radar Cross Section
Medium (>0.1 m² and <1 m²)

Expand to show TLE details & history
Last TLE update: 17 hours ago

TLE from 17 hours ago
0 OPS 4682 DEB
1 27545U 65027BH  26150.56125591  .00000304  00000-0  10538-2 0  9997
2 27545  90.2468   6.9339 0020939 288.8231  99.5825 12.95257374152976
Epoch: 2026-05-30T13:28Z
TLE epoch observation values (Epoch: 2026-05-30T13:28:12.510Z)
Latitude
28.68258°
Longitude
-83.32809°
Altitude
1,286.973 km
Speed
7.214 km/s
True Right ascension
00h 27m 11s
True Declination
28° 32' 53"
Sunlit
Object was in daylight at epoch
Visualization orbit readout
Latitude
Unknown
Longitude
Unknown
Altitude
Unknown
Speed
Unknown
Apparent Right ascension
Unknown
Apparent Declination
Unknown
Sunlit
N/A
Visualization observer readout
Local Sidereal Time
16:15:41
Azimuth
Unknown
Elevation
Unknown
Doppler factor
Unknown
Orbital elements
Apogee altitude
1,293.89 km
Perigee altitude
1,261.828 km
Semi-major axis
7,655.996 km
Eccentricity
0.00209
Inclination
90.2468°
RAAN
6.9339°
Arg. of periapsis
288.8231°
True anomaly
99.81899°
Mean anomaly
99.5825°
Eccentric anomaly
99.70076°
Mean motion
3.23997 °/min
Orbital period
111.11 mins
BSTAR
0.0010538
Loading maneuver chart data...
Computing Atmospheric mass density...
Loading historical data...
Loading historical data...
Loading historical data...
Loading historical data...
Loading historical data...
Loading historical data...
Loading historical data...

Documentation

Showing up to 5 results
|